BCS6VC EDDS-EDDP

Flight info

Callsign BCS6VC
Flight time 0h 38m
Altitude 23000
Route DKB9B/25 DKB N869 AMOSA Z77 LONLI/N0406F220 M726 LASGA T953 VOCIM/N0400F210 T954 GOXLI GOXLI1R
Aircraft B738/M-SDE2E3FGHIRWXY/LB1

Departure

Time 2026-05-06 18:50
Airport Stuttgart Airport (EDDS)

Arrival

Time 2026-05-06 19:29
Airport Leipzig/Halle Airport (EDDP)
Time Latitude Longitude Altitude Speed Heading
2026-05-06 18:15 48.68324 9.20311 1284 ft 0 kts 163°
2026-05-06 18:35 48.68326 9.20310 1284 ft 2 kts 163°
2026-05-06 18:35 48.68350 9.20295 1289 ft 4 kts 150°
2026-05-06 18:35 48.68369 9.20280 1289 ft 4 kts 197°
2026-05-06 18:36 48.68382 9.20299 1289 ft 1 kts 254°
2026-05-06 18:36 48.68388 9.20335 1287 ft 4 kts 254°
2026-05-06 18:36 48.68391 9.20351 1287 ft 0 kts 254°
2026-05-06 18:38 48.68391 9.20348 1287 ft 2 kts 254°
2026-05-06 18:38 48.68387 9.20328 1289 ft 2 kts 254°
2026-05-06 18:39 48.68386 9.20326 1289 ft 0 kts 254°
2026-05-06 18:39 48.68385 9.20320 1289 ft 2 kts 254°
2026-05-06 18:39 48.68377 9.20270 1290 ft 6 kts 255°
2026-05-06 18:40 48.68367 9.20129 1284 ft 10 kts 306°
2026-05-06 18:40 48.68429 9.20092 1285 ft 4 kts 343°
2026-05-06 18:40 48.68434 9.20089 1288 ft 0 kts 343°
2026-05-06 18:41 48.68439 9.20087 1284 ft 4 kts 344°
2026-05-06 18:42 48.68502 9.20062 1288 ft 13 kts 345°
2026-05-06 18:42 48.68584 9.20027 1286 ft 12 kts 344°
2026-05-06 18:42 48.68664 9.19994 1286 ft 12 kts 343°
2026-05-06 18:42 48.68742 9.19964 1284 ft 11 kts 356°
2026-05-06 18:43 48.68816 9.19989 1285 ft 11 kts 39°
2026-05-06 18:43 48.68838 9.20045 1287 ft 0 kts 72°
2026-05-06 18:43 48.68848 9.20095 1288 ft 10 kts 73°
2026-05-06 18:43 48.68871 9.20214 1284 ft 12 kts 74°
2026-05-06 18:44 48.68893 9.20331 1286 ft 12 kts 75°
2026-05-06 18:44 48.68916 9.20454 1284 ft 12 kts 72°
2026-05-06 18:44 48.68940 9.20579 1286 ft 13 kts 74°
2026-05-06 18:44 48.68965 9.20708 1287 ft 13 kts 74°
2026-05-06 18:45 48.68989 9.20838 1286 ft 13 kts 74°
2026-05-06 18:45 48.69015 9.20974 1284 ft 15 kts 74°
2026-05-06 18:45 48.69049 9.21151 1288 ft 20 kts 74°
2026-05-06 18:45 48.69075 9.21287 1286 ft 20 kts 74°
2026-05-06 18:46 48.69125 9.21551 1286 ft 19 kts 73°
2026-05-06 18:46 48.69162 9.21739 1286 ft 18 kts 76°
2026-05-06 18:46 48.69196 9.21922 1287 ft 18 kts 74°
2026-05-06 18:46 48.69229 9.22098 1284 ft 17 kts 74°
2026-05-06 18:47 48.69261 9.22268 1285 ft 16 kts 73°
2026-05-06 18:47 48.69292 9.22432 1285 ft 16 kts 74°
2026-05-06 18:47 48.69322 9.22589 1288 ft 15 kts 75°
2026-05-06 18:47 48.69350 9.22739 1284 ft 15 kts 74°
2026-05-06 18:48 48.69380 9.22897 1289 ft 15 kts 73°
2026-05-06 18:48 48.69408 9.23049 1289 ft 15 kts 81°
2026-05-06 18:48 48.69349 9.23156 1284 ft 14 kts 165°
2026-05-06 18:48 48.69272 9.23190 1284 ft 9 kts 161°
2026-05-06 18:49 48.69218 9.23218 1284 ft 8 kts 162°
2026-05-06 18:49 48.69182 9.23209 1286 ft 2 kts 241°
2026-05-06 18:49 48.69181 9.23205 1286 ft 0 kts 249°
2026-05-06 18:50 48.69155 9.23072 1286 ft 44 kts 254°
2026-05-06 18:50 48.69002 9.22264 1288 ft 113 kts 254°
2026-05-06 18:50 48.68719 9.20836 1345 ft 165 kts 252°
2026-05-06 18:50 48.68414 9.19082 2022 ft 172 kts 255°
2026-05-06 18:51 48.68102 9.17385 3089 ft 160 kts 253°
2026-05-06 18:51 48.67777 9.15746 3741 ft 174 kts 253°
2026-05-06 18:51 48.67425 9.13868 4089 ft 194 kts 255°
2026-05-06 18:51 48.67068 9.11788 4347 ft 212 kts 261°
2026-05-06 18:52 48.67136 9.09491 4726 ft 226 kts 286°
2026-05-06 18:52 48.68012 9.07396 4993 ft 255 kts 315°
2026-05-06 18:52 48.69608 9.05931 5364 ft 281 kts 336°
2026-05-06 18:52 48.71540 9.05530 6328 ft 282 kts
2026-05-06 18:53 48.73406 9.06399 7251 ft 284 kts 28°
2026-05-06 18:53 48.74936 9.08320 7968 ft 291 kts 52°
2026-05-06 18:53 48.76029 9.10905 8777 ft 292 kts 60°
2026-05-06 18:53 48.77022 9.13614 9542 ft 297 kts 62°
2026-05-06 18:54 48.78027 9.16431 10145 ft 305 kts 62°
2026-05-06 18:54 48.79067 9.19332 10341 ft 328 kts 62°
2026-05-06 18:54 48.80197 9.22460 10505 ft 350 kts 61°
2026-05-06 18:54 48.81414 9.25799 10745 ft 369 kts 61°
2026-05-06 18:55 48.82674 9.29239 11248 ft 377 kts 61°
2026-05-06 18:55 48.83957 9.32735 11892 ft 381 kts 61°
2026-05-06 18:55 48.85254 9.36274 12562 ft 386 kts 62°
2026-05-06 18:55 48.86644 9.39786 13213 ft 391 kts 57°
2026-05-06 18:56 48.88201 9.43208 13871 ft 396 kts 55°
2026-05-06 18:56 48.89826 9.46619 14567 ft 398 kts 54°
2026-05-06 18:56 48.91453 9.50007 15340 ft 398 kts 55°
2026-05-06 18:56 48.93078 9.53417 16165 ft 398 kts 56°
2026-05-06 18:57 48.94699 9.56853 16839 ft 401 kts 56°
2026-05-06 18:57 48.96321 9.60324 17442 ft 406 kts 56°
2026-05-06 18:57 48.97961 9.63857 18091 ft 409 kts 57°
2026-05-06 18:57 48.99605 9.67414 18658 ft 412 kts 57°
2026-05-06 18:58 49.01248 9.70978 19241 ft 415 kts 57°
2026-05-06 18:58 49.02355 9.73384 19550 ft 418 kts 57°
2026-05-06 18:58 49.04043 9.77058 19936 ft 426 kts 57°
2026-05-06 18:58 49.05749 9.80776 20477 ft 429 kts 57°
2026-05-06 18:59 49.07459 9.84505 21064 ft 430 kts 58°
2026-05-06 18:59 49.09181 9.88265 21605 ft 433 kts 58°
2026-05-06 18:59 49.10905 9.92035 22109 ft 436 kts 58°
2026-05-06 18:59 49.12645 9.95845 22634 ft 438 kts 58°
2026-05-06 19:00 49.14392 9.99676 23125 ft 441 kts 58°
2026-05-06 19:00 49.16155 10.03547 23584 ft 444 kts 58°
2026-05-06 19:00 49.17923 10.07436 23951 ft 448 kts 58°
2026-05-06 19:00 49.19706 10.11363 24329 ft 451 kts 58°
2026-05-06 19:01 49.21496 10.15312 24688 ft 454 kts 58°
2026-05-06 19:01 49.23303 10.19304 25045 ft 457 kts 58°
2026-05-06 19:01 49.25089 10.23251 25898 ft 446 kts 58°
2026-05-06 19:01 49.26833 10.27107 26793 ft 436 kts 59°
2026-05-06 19:02 49.28522 10.30849 27895 ft 420 kts 59°
2026-05-06 19:02 49.30159 10.34484 28864 ft 410 kts 60°
2026-05-06 19:02 49.31779 10.38103 29232 ft 415 kts 60°
2026-05-06 19:03 49.35112 10.45564 29648 ft 430 kts 60°
2026-05-06 19:03 49.36814 10.49372 29945 ft 435 kts 60°
2026-05-06 19:03 49.38529 10.53213 30204 ft 438 kts 60°
2026-05-06 19:03 49.40255 10.57085 30504 ft 441 kts 60°
2026-05-06 19:04 49.42003 10.61013 30806 ft 443 kts 60°
2026-05-06 19:04 49.43719 10.64874 31102 ft 446 kts 59°
2026-05-06 19:04 49.45465 10.68808 31409 ft 448 kts 59°
2026-05-06 19:04 49.47237 10.72808 31708 ft 450 kts 59°
2026-05-06 19:05 49.49041 10.76726 31999 ft 454 kts 53°
2026-05-06 19:05 49.51277 10.80226 32112 ft 464 kts 41°
2026-05-06 19:05 49.53944 10.83088 32146 ft 474 kts 30°
2026-05-06 19:06 49.60120 10.86933 32285 ft 487 kts 11°
2026-05-06 19:06 49.66856 10.88866 32461 ft 498 kts
2026-05-06 19:06 49.70287 10.89769 32664 ft 500 kts
2026-05-06 19:07 49.73718 10.90703 32815 ft 502 kts
2026-05-06 19:07 49.80593 10.92677 32793 ft 502 kts
2026-05-06 19:08 49.87352 10.94678 32795 ft 496 kts
2026-05-06 19:08 49.94142 10.96851 32599 ft 500 kts 12°
2026-05-06 19:08 49.97531 10.98061 31780 ft 504 kts 11°
2026-05-06 19:09 50.00964 10.99236 31078 ft 503 kts 11°
2026-05-06 19:09 50.04384 11.00393 30290 ft 503 kts 12°
2026-05-06 19:09 50.07800 11.01553 29461 ft 504 kts 12°
2026-05-06 19:09 50.11233 11.02726 28546 ft 503 kts 12°
2026-05-06 19:10 50.14625 11.03891 27906 ft 498 kts 11°
2026-05-06 19:10 50.17980 11.05044 27324 ft 491 kts 11°
2026-05-06 19:10 50.21302 11.06186 26739 ft 485 kts 11°
2026-05-06 19:10 50.24568 11.07311 26134 ft 480 kts 11°
2026-05-06 19:11 50.27814 11.08430 25534 ft 474 kts 11°
2026-05-06 19:11 50.31027 11.09538 24953 ft 470 kts 11°
2026-05-06 19:11 50.34202 11.10636 24383 ft 465 kts 11°
2026-05-06 19:11 50.37343 11.11723 23823 ft 460 kts 11°
2026-05-06 19:12 50.40448 11.12798 23293 ft 454 kts 11°
2026-05-06 19:12 50.43522 11.13865 22641 ft 450 kts 11°
2026-05-06 19:12 50.46558 11.14921 22057 ft 445 kts 11°
2026-05-06 19:12 50.49566 11.15968 21461 ft 440 kts 11°
2026-05-06 19:13 50.52543 11.17005 20878 ft 436 kts 11°
2026-05-06 19:13 50.55469 11.18026 20313 ft 432 kts 11°
2026-05-06 19:13 50.58392 11.19047 19746 ft 428 kts 11°
2026-05-06 19:13 50.61280 11.20056 19191 ft 425 kts 11°
2026-05-06 19:14 50.64110 11.21240 18817 ft 417 kts 18°
2026-05-06 19:14 50.66802 11.23013 18059 ft 421 kts 24°
2026-05-06 19:14 50.69450 11.24984 17325 ft 420 kts 25°
2026-05-06 19:14 50.72075 11.26966 16702 ft 416 kts 25°
2026-05-06 19:15 50.74674 11.28917 16101 ft 411 kts 25°
2026-05-06 19:15 50.77249 11.30830 15529 ft 406 kts 24°
2026-05-06 19:15 50.79798 11.32709 14954 ft 402 kts 24°
2026-05-06 19:15 50.82323 11.34560 14384 ft 399 kts 24°
2026-05-06 19:16 50.84832 11.36395 13824 ft 396 kts 24°
2026-05-06 19:16 50.87324 11.38218 13225 ft 393 kts 24°
2026-05-06 19:16 50.89794 11.40026 12619 ft 390 kts 24°
2026-05-06 19:16 50.92223 11.41808 12038 ft 378 kts 24°
2026-05-06 19:17 50.94565 11.43528 11499 ft 366 kts 24°
2026-05-06 19:17 50.96848 11.45206 10975 ft 356 kts 24°
2026-05-06 19:17 50.99060 11.46834 10479 ft 347 kts 24°
2026-05-06 19:17 51.01220 11.48426 9990 ft 338 kts 24°
2026-05-06 19:18 51.03321 11.49974 9670 ft 324 kts 24°
2026-05-06 19:18 51.05293 11.51431 9672 ft 302 kts 24°
2026-05-06 19:18 51.07154 11.52806 9465 ft 289 kts 24°
2026-05-06 19:18 51.08963 11.54148 9019 ft 286 kts 25°
2026-05-06 19:19 51.10645 11.55822 8519 ft 286 kts 34°
2026-05-06 19:19 51.12263 11.57636 8097 ft 283 kts 34°
2026-05-06 19:19 51.13828 11.59394 7997 ft 267 kts 34°
2026-05-06 19:19 51.15318 11.61072 7704 ft 261 kts 34°
2026-05-06 19:20 51.16791 11.62734 7378 ft 257 kts 34°
2026-05-06 19:20 51.18224 11.64356 7028 ft 255 kts 34°
2026-05-06 19:20 51.19674 11.65998 6744 ft 256 kts 34°
2026-05-06 19:20 51.21119 11.67640 6535 ft 253 kts 34°
2026-05-06 19:21 51.22559 11.69281 6288 ft 253 kts 34°
2026-05-06 19:21 51.23956 11.70884 6212 ft 247 kts 34°
2026-05-06 19:21 51.25351 11.72495 5999 ft 247 kts 34°
2026-05-06 19:21 51.26746 11.74109 5797 ft 247 kts 34°
2026-05-06 19:22 51.28136 11.75718 5616 ft 246 kts 34°
2026-05-06 19:22 51.29515 11.77317 5440 ft 245 kts 34°
2026-05-06 19:22 51.30899 11.78920 5194 ft 246 kts 34°
2026-05-06 19:22 51.32283 11.80523 4937 ft 245 kts 34°
2026-05-06 19:23 51.33663 11.82122 4684 ft 244 kts 34°
2026-05-06 19:23 51.35034 11.83716 4414 ft 243 kts 34°
2026-05-06 19:23 51.36394 11.85294 4189 ft 242 kts 34°
2026-05-06 19:23 51.37762 11.86881 3913 ft 242 kts 35°
2026-05-06 19:24 51.39103 11.88540 3515 ft 247 kts 47°
2026-05-06 19:24 51.39848 11.90953 3139 ft 243 kts 80°
2026-05-06 19:24 51.40002 11.93564 3037 ft 227 kts 88°
2026-05-06 19:24 51.40074 11.95978 3002 ft 208 kts 87°
2026-05-06 19:25 51.40160 11.98241 3022 ft 207 kts 86°
2026-05-06 19:25 51.40259 12.00550 2884 ft 211 kts 86°
2026-05-06 19:25 51.40363 12.02876 2598 ft 203 kts 86°
2026-05-06 19:25 51.40460 12.05047 2344 ft 189 kts 86°
2026-05-06 19:26 51.40551 12.07076 2085 ft 175 kts 86°
2026-05-06 19:26 51.40633 12.08907 1906 ft 154 kts 86°
2026-05-06 19:26 51.40705 12.10509 1735 ft 132 kts 86°
2026-05-06 19:26 51.40780 12.11920 1486 ft 125 kts 86°
2026-05-06 19:27 51.40826 12.13275 1305 ft 124 kts 86°
2026-05-06 19:27 51.40880 12.14696 1167 ft 129 kts 85°
2026-05-06 19:27 51.40952 12.16140 998 ft 132 kts 84°
2026-05-06 19:27 51.41015 12.17587 834 ft 130 kts 84°
2026-05-06 19:28 51.41074 12.19030 669 ft 131 kts 82°
2026-05-06 19:28 51.41151 12.20472 487 ft 129 kts 81°
2026-05-06 19:28 51.41216 12.21767 454 ft 105 kts 82°
2026-05-06 19:28 51.41265 12.22691 460 ft 62 kts 86°
2026-05-06 19:29 51.41288 12.23142 464 ft 17 kts 85°
2026-05-06 19:29 51.41227 12.23268 465 ft 16 kts 169°
2026-05-06 19:29 51.41187 12.23273 465 ft 0 kts 176°
2026-05-06 19:31 51.41180 12.23274 465 ft 3 kts 176°
2026-05-06 19:31 51.41138 12.23278 467 ft 7 kts 176°
2026-05-06 19:31 51.41047 12.23313 469 ft 7 kts 134°
2026-05-06 19:32 51.41038 12.23410 468 ft 11 kts 86°
2026-05-06 19:32 51.41045 12.23531 469 ft 11 kts 84°
2026-05-06 19:32 51.41051 12.23647 470 ft 10 kts 85°
2026-05-06 19:32 51.41027 12.23742 469 ft 10 kts 158°
2026-05-06 19:33 51.40954 12.23753 468 ft 11 kts 175°
2026-05-06 19:33 51.40916 12.23758 466 ft 1 kts 175°
2026-05-06 19:33 51.40901 12.23763 466 ft 3 kts 154°
2026-05-06 19:33 51.40891 12.23804 465 ft 5 kts 93°
2026-05-06 19:34 51.40893 12.23857 465 ft 2 kts 85°
2026-05-06 19:34 51.40894 12.23872 465 ft 1 kts 85°
2026-05-06 19:34 51.40894 12.23879 465 ft 0 kts 85°
2026-05-06 19:34 51.40894 12.23882 465 ft 0 kts 85°